Location: ?????????
(41.1143°N, 22.7905°E)
Time: 02:18:37
(UTC+00:00)

SL-24 R/B - RUBIN 2 - Pass Details

Date: 13 December 2025
Orbit: 601 x 986 km, 64.6° (Epoch: 17 January)

Event Time Altitude Azimuth Distance (km) Brightness Sun altitude
Rises 17:26:20 0° 225° (SW) 3,375 8.1 -26.6°
Reaches altitude 10° 17:28:58 10° 229° (SW) 2,381 7.3 -27.1°
Maximum altitude 17:34:17 53° 306° (NW) 914 4.5 -28.0°
Enters shadow 17:34:51 50° 331° (NNW) 937 4.5 -28.2°
